[[{"header":{"parameterUnit":"m.s-1","parameterCategory":1,"la1":30.2991,"la2":30.254,"lo1":-89.0895,"lo2":-89.0444,"dy":0.0017,"dx":0.0017,"nx":28,"ny":28,"refTime":"2023-10-06T09:00:00:Z","depth":0,"parameterNumber":2,"parameterNumberName":"U-component_of_WINDS"},"data":[0,0,0,0,0,0,0,0,0,0,0,0,0,0,0,0,0,0,0,0,0,0,0,0,0,0,0,0,0,0,0,0,0,0,0,0,0,0,0,0,0,0,0,0,0,0,0,0,0,0,0,0,0,0,0,0,0,0,-0.9131,-0.9131,0,-0.9166,-0.9166,-0.9167,-0.9117,-0.9116,-0.9114,-0.9112,-0.915,-0.9152,-0.9155,0,0,0,0,0,0,0,0,0,0,0,0,0,-0.9021,-0.9024,-0.9131,-0.9131,-0.9132,-0.9166,-0.9166,-0.9167,-0.9118,-0.9115,-0.9113,-0.9111,-0.9149,-0.9152,-0.9155,0,0,0,0,0,0,0,0,0,0,0,0,0,-0.9064,-0.9024,-0.9131,-0.9111,-0.911,-0.9166,-0.9166,-0.9167,-0.9118,-0.9115,-0.9113,-0.911,-0.9148,-0.9152,-0.9156,-0.9233,0,0,-0.9168,-0.917,0,0,0,0,0,0,0,0,-0.9062,-0.9068,-0.9113,-0.9113,-0.9111,-0.9134,-0.9142,-0.9189,-0.9119,-0.9115,-0.9112,-0.9109,-0.9147,-0.9151,-0.9163,-0.9235,-0.9236,-0.9168,-0.9171,-0.9172,-0.9173,0,0,0,0,0,0,0,-0.9059,-0.9066,-0.9145,-0.9114,-0.9113,-0.9101,-0.9104,-0.915,-0.9145,-0.9115,-0.9112,-0.9116,-0.9146,-0.916,-0.9164,-0.9237,-0.9168,-0.9172,-0.9174,-0.9176,-0.9374,-0.9377,0,0,0,0,0,0,-0.9058,-0.9064,-0.9143,-0.9146,-0.9079,-0.9105,-0.9108,-0.913,-0.9145,-0.9144,-0.9119,-0.9114,-0.9154,-0.9159,-0.9165,-0.9257,-0.9172,-0.9176,-0.9178,-0.9371,-0.9374,-0.9378,0,0,0,0,0,0,-0.9056,-0.9066,-0.9142,-0.9104,-0.9113,-0.911,-0.9134,-0.9132,-0.9146,-0.9147,-0.9146,-0.9134,-0.9152,-0.9159,-0.9216,-0.9258,-0.9178,-0.9181,-0.9368,-0.9372,-0.9376,-0.9442,0,0,0,0,0,0,-0.9053,-0.9065,-0.9095,-0.9105,-0.9115,-0.9193,-0.9136,-0.9134,-0.9152,-0.9147,-0.9161,-0.9161,-0.9151,-0.9211,-0.922,-0.9262,-0.9184,-0.9364,-0.937,-0.9375,-0.9437,-0.9449,-0.9459,0,0,0,0,0,-0.9049,-0.9112,-0.9096,-0.9106,-0.9152,-0.9196,-0.9201,-0.9188,-0.9156,-0.9186,-0.9186,-0.9161,-0.9251,-0.9217,-0.9227,-0.9271,-0.9361,-0.9368,-0.9374,-0.9432,-0.9446,-0.9458,0,0,0,0,0,0,-0.9107,-0.9113,-0.9096,-0.9164,-0.9179,-0.9187,-0.9224,-0.9203,-0.9229,-0.9223,-0.9205,-0.9209,-0.927,-0.9275,-0.9237,-0.9346,-0.9301,-0.931,-0.9341,-0.9355,-0.9366,-0.9364,-0.9188,0,0,0,0,0,-0.9128,-0.9163,-0.9166,-0.9226,-0.9234,-0.9228,-0.9247,-0.9235,-0.925,-0.9257,-0.9262,-0.9279,-0.9311,-0.9333,-0.9362,-0.9436,-0.9439,-0.9471,-0.9482,-0.9491,-0.95,-0.954,-0.9554,-0.9399,-0.9399,-0.9399,0,0,-0.9171,-0.9179,-0.9202,-0.9238,-0.9248,-0.9285,-0.9234,-0.9275,-0.9303,-0.9263,-0.9318,-0.9322,-0.9339,-0.9405,-0.9435,-0.9412,-0.9543,-0.9499,-0.9507,-0.951,-0.9548,-0.9563,-0.9576,-0.9403,-0.9403,-0.9402,0,0,-0.927,-0.9278,-0.9329,-0.9341,-0.9357,-0.9352,-0.9365,-0.9375,-0.9376,-0.943,-0.9402,-0.9434,-0.9489,-0.9503,-0.9517,-0.9619,-0.9597,-0.9629,-0.9688,-0.9727,-0.9739,-0.975,-0.9788,-0.9802,-0.9637,-0.9637,-0.9637,0,-0.9322,-0.9376,-0.9358,-0.9402,-0.9418,-0.9383,-0.9435,-0.9447,-0.9473,-0.9485,-0.9459,-0.9528,-0.9537,-0.9606,-0.9631,-0.9643,-0.9657,-0.9629,-0.9739,-0.975,-0.976,-0.9795,-0.9809,-0.9641,-0.9641,-0.964,-0.964,0,-0.944,-0.9478,-0.9517,-0.9543,-0.9563,-0.9611,-0.96,-0.9623,-0.9609,-0.9607,-0.9662,-0.9671,-0.9703,-0.9717,-0.9704,-0.9785,-0.977,-0.9742,-0.9696,-0.9779,-0.9812,-0.9826,-0.9647,-0.9646,-0.9644,-0.9643,0,0,-0.9579,-0.9592,-0.9607,-0.9618,-0.9633,-0.9662,-0.9708,-0.9737,-0.9758,-0.9776,-0.9815,-0.9862,-0.9836,-0.9852,-0.9839,-0.9873,-0.9955,-0.984,-0.9841,-0.9863,-1.0045,-1.0068,-1.0085,-0.9938,-0.9941,-0.9943,-1.0044,0,-0.9678,-0.9757,-0.9742,-0.9819,-0.9854,-0.982,-0.9859,-0.9873,-0.9872,-0.9902,-0.99,-0.9934,-0.9896,-0.9906,-0.9937,-0.9938,-0.9991,-0.993,-0.9975,-0.9977,-0.9975,-1.0102,-1.0126,-1.0222,-1.0057,-1.0059,-1.0061,0,-0.9806,-0.9828,-0.9909,-0.9918,-0.9932,-0.9968,-0.9994,-1.0023,-1.0037,-1.0034,-1.0051,-1.0032,-1.0077,-1.0029,-1.0091,-1.005,-1.0067,-1.007,-1.0073,-1.0079,-1.0026,-1.0113,-1.0252,-1.0267,-1.0081,-1.0079,-1.0078,0,-0.9901,-0.9951,-1.0006,-1.0016,-1.0028,-1.0054,-1.006,-1.0072,-1.0091,-1.0113,-1.0125,-1.0152,-1.0168,-1.0189,-1.0178,-1.0144,-1.0243,-1.0194,-1.0243,-1.0243,-1.0268,-1.0267,-1.0414,-1.0275,-1.0275,-1.0274,-1.0274,0,-1.0015,-1.0067,-1.0049,-1.0084,-1.014,-1.0121,-1.0177,-1.0179,-1.0189,-1.0223,-1.0194,-1.0227,-1.0209,-1.024,-1.0231,-1.0285,-1.0291,-1.0291,-1.0288,-1.0295,-1.0295,-1.0308,-1.0302,-1.0278,-1.0277,-1.0277,-1.0276,0,-1.0133,-1.0123,-1.0181,-1.0186,-1.0189,-1.023,-1.0235,-1.0267,-1.0262,-1.0306,-1.0315,-1.0308,-1.0343,-1.0333,-1.0371,-1.0365,-1.0434,-1.0422,-1.0429,-1.0427,-1.0478,-1.0474,-1.064,-1.0661,-1.0506,-1.0508,-1.0509,0,-1.0208,-1.0246,-1.0255,-1.0276,-1.0284,-1.0317,-1.0336,-1.0318,-1.0339,-1.0357,-1.0387,-1.042,-1.0445,-1.0502,-1.0501,-1.053,-1.052,-1.0575,-1.0524,-1.053,-1.0523,-1.0522,-1.0526,-1.0587,-1.0589,-1.059,-1.0591,0,-1.0342,-1.0335,-1.0363,-1.039,-1.0413,-1.0432,-1.045,-1.0468,-1.0451,-1.0476,-1.0511,-1.0531,-1.0569,-1.0602,-1.0628,-1.0634,-1.0611,-1.0607,-1.062,-1.0629,-1.0633,-1.0633,-1.046,-1.0604,-1.0603,-1.0602,-1.0601,-1.0601,-1.0442,-1.0475,-1.0487,-1.0519,-1.0529,-1.0546,-1.0576,-1.0575,-1.0604,-1.0634,-1.0621,-1.0662,-1.0674,-1.0707,-1.0716,-1.0748,-1.0727,-1.0745,-1.0751,-1.0756,-1.0763,-1.0625,-1.0752,-1.0752,-1.0751,-1.0751,-1.0751,0,-1.0577,-1.0582,-1.0612,-1.0637,-1.0662,-1.0636,-1.0653,-1.0676,-1.0713,-1.0726,-1.0751,-1.0791,-1.0822,-1.0823,-1.0852,-1.0878,-1.0868,-1.0886,-1.0885,-1.0887,-1.078,-1.0766,-1.0894,-1.0894,-1.0894,-1.0894,-1.0894,-1.0893,-1.065,-1.0705,-1.0699,-1.0758,-1.0763,-1.0803,-1.0815,-1.083,-1.0841,-1.0887,-1.0913,-1.0913,-1.0921,-1.095,-1.0978,-1.0977,-1.099,-1.1013,-1.1009,-1.0909,-1.0895,-1.0881,-1.0869,-1.1015,-1.1016,-1.1114,-1.1115,-1.1115]},{"header":{"parameterUnit":"m.s-1","parameterCategory":1,"la1":30.2991,"la2":30.254,"lo1":-89.0895,"lo2":-89.0444,"dy":0.0017,"dx":0.0017,"nx":28,"ny":28,"refTime":"2023-10-06T09:00:00:Z","depth":0,"parameterNumber":3,"parameterNumberName":"V-component_of_WINDS"},"data":[0,0,0,0,0,0,0,0,0,0,0,0,0,0,0,0,0,0,0,0,0,0,0,0,0,0,0,0,0,0,0,0,0,0,0,0,0,0,0,0,0,0,0,0,0,0,0,0,0,0,0,0,0,0,0,0,0,0,-6.9405,-6.9407,0,-6.9558,-6.9559,-6.9561,-6.9481,-6.9477,-6.9473,-6.9469,-6.9621,-6.9629,-6.9636,0,0,0,0,0,0,0,0,0,0,0,0,0,-6.9042,-6.9049,-6.9405,-6.9407,-6.9409,-6.9557,-6.9559,-6.9562,-6.9482,-6.9477,-6.9472,-6.9468,-6.9618,-6.9628,-6.9637,0,0,0,0,0,0,0,0,0,0,0,0,0,-6.9197,-6.9051,-6.9405,-6.9387,-6.9387,-6.9557,-6.956,-6.9562,-6.9483,-6.9477,-6.9471,-6.9465,-6.9615,-6.9627,-6.9638,-6.9832,0,0,-6.9674,-6.9679,0,0,0,0,0,0,0,0,-6.9188,-6.9211,-6.9388,-6.9389,-6.9389,-6.9494,-6.9487,-6.9653,-6.9485,-6.9447,-6.9469,-6.9462,-6.9584,-6.9597,-6.9639,-6.984,-6.9846,-6.9675,-6.9682,-6.9687,-6.9691,0,0,0,0,0,0,0,-6.9178,-6.9204,-6.9465,-6.9391,-6.9392,-6.9371,-6.9386,-6.9518,-6.9547,-6.945,-6.9444,-6.9463,-6.9583,-6.9628,-6.9642,-6.9848,-6.9675,-6.9685,-6.9692,-6.9697,-7.0216,-7.0222,0,0,0,0,0,0,-6.9169,-6.9195,-6.946,-6.947,-6.9272,-6.9382,-6.9399,-6.9467,-6.9546,-6.9552,-6.9469,-6.9459,-6.9611,-6.9629,-6.9647,-6.9881,-6.9687,-6.9698,-6.9705,-7.0209,-7.0217,-7.0225,0,0,0,0,0,0,-6.9161,-6.9193,-6.9454,-6.9331,-6.9363,-6.9395,-6.9471,-6.9473,-6.9518,-6.956,-6.9564,-6.951,-6.9607,-6.9631,-6.9787,-6.9885,-6.9704,-6.9714,-7.0201,-7.0212,-7.0221,-7.0349,0,0,0,0,0,0,-6.9151,-6.9191,-6.9266,-6.9334,-6.937,-6.9594,-6.9477,-6.948,-6.9539,-6.9529,-6.96,-6.9606,-6.9604,-6.977,-6.9799,-6.9898,-6.9723,-7.0193,-7.0206,-7.0218,-7.0336,-7.0362,-7.0384,0,0,0,0,0,-6.9138,-6.9294,-6.927,-6.9303,-6.9465,-6.96,-6.962,-6.9616,-6.9548,-6.9623,-6.9649,-6.9604,-6.9869,-6.9787,-6.9819,-6.9922,-7.0187,-7.0202,-7.0217,-7.0325,-7.0357,-7.0383,0,0,0,0,0,0,-6.9236,-6.9303,-6.9277,-6.946,-6.9525,-6.9586,-6.9681,-6.9649,-6.9734,-6.972,-6.971,-6.9727,-6.989,-6.9921,-6.9829,-7.0114,-7.0017,-7.0039,-7.0088,-7.0119,-7.0143,-7.0132,-6.9733,0,0,0,0,0,-6.9279,-6.9384,-6.9436,-6.9593,-6.9627,-6.9649,-6.9707,-6.9699,-6.9765,-6.9791,-6.9829,-6.9894,-6.9992,-7.0057,-7.0149,-7.0339,-7.0354,-7.0426,-7.045,-7.047,-7.0489,-7.0593,-7.0626,-7.0275,-7.0274,-7.0274,0,0,-6.9368,-6.9418,-6.9485,-6.9614,-6.9663,-6.9772,-6.9672,-6.9791,-6.9871,-6.9809,-6.996,-6.999,-7.0062,-7.0237,-7.0315,-7.0268,-7.059,-7.0489,-7.0504,-7.0514,-7.0612,-7.0645,-7.0675,-7.0285,-7.0283,-7.0281,0,0,-6.9587,-6.9635,-6.9772,-6.9824,-6.99,-6.9914,-6.9946,-7.0013,-7.0031,-7.0183,-7.0139,-7.0233,-7.0402,-7.0455,-7.0504,-7.0744,-7.0705,-7.0774,-7.09,-7.1002,-7.1029,-7.1054,-7.114,-7.1171,-7.0793,-7.0794,-7.0794,0,-6.9688,-6.9852,-6.9845,-6.9968,-7.0026,-6.9977,-7.0114,-7.0164,-7.0266,-7.0307,-7.0252,-7.0464,-7.0509,-7.0696,-7.0754,-7.0795,-7.0832,-7.0767,-7.1026,-7.1051,-7.1073,-7.1156,-7.1188,-7.0802,-7.0801,-7.08,-7.0799,0,-6.9973,-7.0087,-7.0187,-7.029,-7.0359,-7.0488,-7.05,-7.0571,-7.0556,-7.0575,-7.073,-7.0782,-7.0884,-7.0928,-7.0913,-7.1113,-7.1081,-7.1027,-7.0929,-7.1115,-7.1192,-7.1224,-7.0813,-7.081,-7.0808,-7.0806,0,0,-7.0258,-7.0356,-7.0393,-7.0439,-7.052,-7.0608,-7.0734,-7.0836,-7.0897,-7.0969,-7.1075,-7.122,-7.117,-7.1226,-7.1217,-7.1306,-7.1494,-7.124,-7.1242,-7.1287,-7.1718,-7.1759,-7.1796,-7.1468,-7.1474,-7.1479,-7.1712,0,-7.0483,-7.0708,-7.0706,-7.0913,-7.1018,-7.0972,-7.1083,-7.1144,-7.1165,-7.1256,-7.1277,-7.1381,-7.1307,-7.1341,-7.1426,-7.1453,-7.1581,-7.1436,-7.1567,-7.1571,-7.1552,-7.1836,-7.1881,-7.2098,-7.1742,-7.1747,-7.1751,0,-7.0776,-7.0861,-7.1079,-7.1146,-7.119,-7.1289,-7.1383,-7.1471,-7.1539,-7.1548,-7.1611,-7.1589,-7.1716,-7.1614,-7.179,-7.1692,-7.1745,-7.1766,-7.1775,-7.1788,-7.1673,-7.1858,-7.2167,-7.2201,-7.1798,-7.1794,-7.1791,0,-7.0964,-7.1131,-7.1284,-7.1325,-7.1406,-7.1477,-7.1514,-7.1576,-7.1638,-7.1719,-7.1759,-7.1853,-7.1905,-7.1978,-7.1982,-7.1907,-7.216,-7.2058,-7.2171,-7.2171,-7.2227,-7.2224,-7.2551,-7.2259,-7.2259,-7.2258,-7.2257,0,-7.1217,-7.1353,-7.137,-7.1464,-7.1614,-7.161,-7.1758,-7.1788,-7.1844,-7.1942,-7.1907,-7.2,-7.1998,-7.2092,-7.2095,-7.2241,-7.2264,-7.2274,-7.2274,-7.2279,-7.2278,-7.2314,-7.23,-7.2267,-7.2265,-7.2263,-7.2262,0,-7.1452,-7.1469,-7.1633,-7.1697,-7.1716,-7.1824,-7.1878,-7.1967,-7.1985,-7.211,-7.2139,-7.2166,-7.2275,-7.2286,-7.2411,-7.2413,-7.259,-7.2572,-7.2568,-7.2565,-7.2678,-7.2668,-7.3041,-7.309,-7.2766,-7.2769,-7.2772,0,-7.1613,-7.1717,-7.1793,-7.1857,-7.1899,-7.2002,-7.2065,-7.2065,-7.2132,-7.2218,-7.2296,-7.2402,-7.2487,-7.2662,-7.2693,-7.2789,-7.2774,-7.2898,-7.2788,-7.279,-7.2777,-7.2772,-7.2782,-7.292,-7.2923,-7.2926,-7.2929,0,-7.1898,-7.1901,-7.1995,-7.2092,-7.2169,-7.2245,-7.2316,-7.237,-7.2378,-7.2455,-7.2567,-7.2633,-7.2763,-7.2868,-7.2963,-7.2998,-7.2966,-7.2963,-7.2994,-7.3001,-7.2995,-7.3001,-7.2628,-7.2955,-7.2952,-7.295,-7.2949,-7.2948,-7.2102,-7.2192,-7.226,-7.2366,-7.242,-7.2487,-7.2574,-7.2604,-7.2698,-7.2804,-7.2797,-7.2921,-7.2986,-7.311,-7.3153,-7.3249,-7.3208,-7.3253,-7.3265,-7.3276,-7.3289,-7.2979,-7.3266,-7.3265,-7.3265,-7.3264,-7.3264,0,-7.2385,-7.2427,-7.2524,-7.2626,-7.2709,-7.2672,-7.2749,-7.282,-7.293,-7.2995,-7.3079,-7.3208,-7.331,-7.3349,-7.3449,-7.3518,-7.3505,-7.3544,-7.354,-7.3549,-7.3319,-7.3283,-7.3553,-7.3553,-7.3553,-7.3553,-7.3553,-7.3553,-7.2542,-7.2694,-7.2706,-7.2884,-7.2923,-7.3046,-7.3094,-7.3155,-7.3207,-7.3353,-7.3439,-7.3464,-7.3518,-7.3621,-7.3713,-7.3722,-7.376,-7.3806,-7.3809,-7.3594,-7.3565,-7.3537,-7.3503,-7.3814,-7.3815,-7.403,-7.4032,-7.4034]}]]